STARLINK-35787, 66978

Orbit data source: Space-Track

STARLINK-35787, 66978 is a payload satellite owned by SpaceX/Seattle (US) in LEO that was launched on Mon, 08 Dec 2025 UTC via an FALCON 9 launch vehicle from the Air Force Eastern Test Range (AFETR). Payload-class satellites include a variety of spacecraft equipped with specific instruments for various scientific and technological missions. These include communications satellites like Starlink; space stations such as the ISS; scientific satellites like the Hubble; Earth observation satellites from companies like Planet Labs, Umbra, and HawkEye 360; GPS; miniature CubeSats for education and research; and military/defense satellites.

Loading next visibility...
Identifier
66978, 2025-288V
Orbit
LEO
Country
Flag of USUS
Related business
Manufacturer
SpaceX/Seattle
Mission
Operational Commercial Communications
Bus & Motor
STARLINK V2MO, Unknown motor
Mass
575 kg wet, ~530 kg dry
Launch date (UTC)
2025-12-08 (5 months ago)
Launch vehicle
FALCON 9
Launch site
Air Force Eastern Test Range (AFETR)
Object type
Payload
Rocket body
Debris
Shape & HBR
Box + 2 Pan, 17.7 m
Radar Cross Section
36.964 m²

Expand to show TLE details & history
Last TLE update: 10 hours ago

TLE from 10 hours ago
0 STARLINK-35787
1 66978U 25288V   26130.10705909  .00004270  00000-0  16463-3 0  9990
2 66978  43.0034  36.3216 0001341 278.2650  81.8049 15.27570686 24689
Epoch: 2026-05-10T02:34Z
TLE epoch observation values (Epoch: 2026-05-10T02:34:09.905Z)
Latitude
-0.00005°
Longitude
129.86538°
Altitude
482.722 km
Speed
7.626 km/s
True Right ascension
02h 25m 17s
True Declination
0° 00' 00"
Sunlit
Object was in daylight at epoch
Visualization orbit readout
Latitude
Unknown
Longitude
Unknown
Altitude
Unknown
Speed
Unknown
Apparent Right ascension
Unknown
Apparent Declination
Unknown
Sunlit
N/A
Visualization observer readout
Local Sidereal Time
20:36:20
Azimuth
Unknown
Elevation
Unknown
Doppler factor
Unknown
Orbital elements
Apogee altitude
485.942 km
Perigee altitude
484.101 km
Semi-major axis
6,863.159 km
Eccentricity
0.00013
Inclination
43.0034°
RAAN
36.3216°
Arg. of periapsis
278.265°
True anomaly
81.82011°
Mean anomaly
81.8049°
Eccentric anomaly
81.81251°
Mean motion
3.81731 °/min
Orbital period
94.31 mins
BSTAR
0.00016463
Loading maneuver chart data...
Computing Atmospheric mass density...
Loading historical data...
Loading historical data...
Loading historical data...
Loading historical data...
Loading historical data...
Loading historical data...
Loading historical data...

Documentation

Showing up to 5 results
|